[[{"header":{"parameterUnit":"m.s-1","parameterCategory":1,"la1":30.2991,"la2":30.254,"lo1":-89.0895,"lo2":-89.0444,"dy":0.0017,"dx":0.0017,"nx":28,"ny":28,"refTime":"2025-03-05T09:00:00:Z","depth":0,"parameterNumber":2,"parameterNumberName":"U-component_of_WINDS"},"data":[0,0,0,0,0,0,0,0,0,0,0,0,0,0,0,0,0,0,0,0,0,0,0,0,0,0,0,0,0,0,0,0,0,0,0,0,0,0,0,0,0,0,0,0,0,0,0,0,0,0,0,0,0,0,0,0,0,0,6.2079,6.2081,0,6.2246,6.2248,6.2249,6.2186,6.2183,6.2179,6.2175,6.2348,6.2356,6.2364,0,0,0,0,0,0,0,0,0,0,0,0,0,6.1712,6.1719,6.2079,6.2081,6.2083,6.2245,6.2248,6.225,6.2187,6.2182,6.2178,6.2173,6.2346,6.2355,6.2365,0,0,0,0,0,0,0,0,0,0,0,0,0,6.1874,6.1721,6.2079,6.2072,6.2073,6.2245,6.2248,6.2251,6.2188,6.2182,6.2177,6.2171,6.2342,6.2354,6.2366,6.2557,0,0,6.2404,6.2409,0,0,0,0,0,0,0,0,6.1865,6.1888,6.2071,6.2072,6.2074,6.2189,6.2181,6.2353,6.219,6.2144,6.2175,6.2168,6.23,6.2316,6.2359,6.2565,6.2572,6.2405,6.2412,6.2418,6.2421,0,0,0,0,0,0,0,6.1854,6.188,6.2145,6.2073,6.2075,6.2062,6.2078,6.2214,6.2253,6.2148,6.2144,6.2164,6.23,6.2348,6.2363,6.2575,6.2404,6.2415,6.2423,6.2428,6.2948,6.2955,0,0,0,0,0,0,6.1842,6.1871,6.214,6.215,6.1953,6.2073,6.2091,6.2158,6.2251,6.2259,6.2169,6.2161,6.233,6.2349,6.2369,6.26,6.2417,6.2429,6.2436,6.2942,6.295,6.2957,0,0,0,0,0,0,6.1834,6.1866,6.2133,6.201,6.2043,6.2085,6.2161,6.2164,6.2212,6.2267,6.2273,6.221,6.2326,6.2352,6.2511,6.2605,6.2434,6.2446,6.2934,6.2944,6.2953,6.3063,0,0,0,0,0,0,6.1824,6.1864,6.1935,6.2012,6.205,6.2272,6.2166,6.2172,6.2233,6.2224,6.2307,6.2316,6.2323,6.2493,6.2523,6.2619,6.2455,6.2926,6.2939,6.295,6.3051,6.3075,6.3096,0,0,0,0,0,6.1811,6.1959,6.1939,6.1972,6.214,6.2277,6.2299,6.2304,6.2241,6.2314,6.235,6.2313,6.259,6.251,6.2543,6.2644,6.292,6.2935,6.2949,6.3041,6.3071,6.3096,0,0,0,0,0,0,6.1893,6.1969,6.1948,6.2125,6.2195,6.2266,6.2358,6.2334,6.2424,6.2412,6.2415,6.2435,6.26,6.2638,6.2547,6.2835,6.2746,6.2768,6.2804,6.2833,6.2855,6.2843,6.2465,0,0,0,0,0,6.1932,6.2036,6.2097,6.2248,6.2284,6.2316,6.2375,6.2374,6.2447,6.2476,6.2523,6.2596,6.27,6.2768,6.2866,6.3056,6.3075,6.3143,6.3165,6.3183,6.3202,6.3309,6.3341,6.3005,6.3005,6.3004,0,0,6.2013,6.2067,6.2133,6.2266,6.232,6.243,6.2341,6.2459,6.2542,6.2494,6.2648,6.2686,6.2768,6.2944,6.3024,6.2981,6.3299,6.3202,6.3216,6.3225,6.3327,6.3359,6.3387,6.3015,6.3013,6.3011,0,0,6.2217,6.2268,6.24,6.2457,6.2539,6.256,6.2592,6.2668,6.2691,6.2845,6.2813,6.2911,6.3089,6.315,6.3204,6.3435,6.3406,6.3467,6.3584,6.3688,6.3714,6.3738,6.3823,6.3853,6.3486,6.3486,6.3486,0,6.2307,6.247,6.2471,6.2594,6.2655,6.2617,6.2753,6.2808,6.2919,6.2963,6.2913,6.3137,6.319,6.3381,6.3438,6.3482,6.3521,6.3457,6.371,6.3734,6.3756,6.3837,6.3869,6.3493,6.3492,6.3491,6.3491,0,6.2579,6.2692,6.279,6.2899,6.297,6.3099,6.3122,6.3195,6.3187,6.3214,6.3373,6.3435,6.3547,6.3592,6.3585,6.3784,6.3755,6.3708,6.3618,6.3795,6.3871,6.3902,6.3503,6.35,6.3498,6.3497,0,0,6.2838,6.2948,6.2984,6.3034,6.3124,6.3213,6.3341,6.345,6.3514,6.3592,6.3702,6.3855,6.3812,6.3874,6.3874,6.3965,6.4148,6.3907,6.3909,6.3952,6.4374,6.4411,6.4446,6.4129,6.4135,6.4139,6.4368,0,6.3051,6.3275,6.3282,6.3488,6.3594,6.3561,6.3674,6.3742,6.3771,6.3867,6.3899,6.4009,6.3943,6.398,6.4069,6.4107,6.4233,6.409,6.4233,6.4238,6.4215,6.4486,6.4524,6.4737,6.4398,6.4403,6.4407,0,6.3329,6.3418,6.3634,6.3712,6.3757,6.3857,6.3959,6.4051,6.4129,6.4144,6.4215,6.4202,6.4336,6.4242,6.4427,6.433,6.4389,6.4417,6.4425,6.444,6.4334,6.451,6.4805,6.4837,6.4453,6.4449,6.4446,0,6.35,6.3673,6.3826,6.3869,6.3963,6.4035,6.4078,6.415,6.4216,6.4306,6.4349,6.4454,6.4511,6.4593,6.4611,6.454,6.4798,6.4704,6.4816,6.4816,6.4873,6.4869,6.5183,6.4908,6.4907,6.4907,6.4906,0,6.3738,6.3873,6.3904,6.3998,6.4149,6.4156,6.4306,6.4343,6.4408,6.4511,6.4488,6.4585,6.4602,6.4703,6.4718,6.4871,6.4897,6.4914,6.4917,6.4917,6.4916,6.4957,6.4943,6.4915,6.4913,6.4912,6.491,0,6.3955,6.3981,6.4145,6.4221,6.4244,6.4352,6.4417,6.4509,6.4535,6.4666,6.4697,6.474,6.4858,6.4884,6.5024,6.5034,6.5217,6.5204,6.5191,6.519,6.5302,6.5292,6.5654,6.5704,6.5395,6.5397,6.54,0,6.4106,6.4209,6.4296,6.4363,6.4409,6.4517,6.4584,6.4596,6.4668,6.4767,6.4847,6.4963,6.5057,6.5248,6.5293,6.5401,6.5392,6.5512,6.5408,6.5407,6.5397,6.5391,6.5403,6.5532,6.5535,6.5538,6.554,0,6.4372,6.438,6.4478,6.4582,6.4664,6.4746,6.4824,6.4881,6.4904,6.4986,6.5107,6.518,6.5324,6.5441,6.555,6.5595,6.5574,6.5573,6.5605,6.5607,6.5596,6.5606,6.5247,6.5564,6.5562,6.556,6.5559,6.5558,6.4562,6.4653,6.4729,6.484,6.4901,6.4975,6.5066,6.5104,6.5205,6.5323,6.5324,6.5457,6.5536,6.568,6.5733,6.5839,6.5801,6.5847,6.5859,6.5871,6.5882,6.5578,6.5858,6.5858,6.5857,6.5856,6.5856,0,6.4829,6.4877,6.4979,6.509,6.5178,6.5148,6.5234,6.5311,6.5428,6.5502,6.5596,6.5736,6.585,6.5905,6.6018,6.6092,6.6085,6.6122,6.6117,6.6129,6.5908,6.587,6.6126,6.6125,6.6125,6.6125,6.6125,6.6125,6.4978,6.5132,6.515,6.5334,6.5381,6.5511,6.5563,6.5633,6.5693,6.5851,6.5945,6.598,6.6048,6.6166,6.627,6.6284,6.6327,6.6369,6.6378,6.6171,6.6144,6.6118,6.6082,6.6378,6.6379,6.6591,6.6592,6.6594]},{"header":{"parameterUnit":"m.s-1","parameterCategory":1,"la1":30.2991,"la2":30.254,"lo1":-89.0895,"lo2":-89.0444,"dy":0.0017,"dx":0.0017,"nx":28,"ny":28,"refTime":"2025-03-05T09:00:00:Z","depth":0,"parameterNumber":3,"parameterNumberName":"V-component_of_WINDS"},"data":[0,0,0,0,0,0,0,0,0,0,0,0,0,0,0,0,0,0,0,0,0,0,0,0,0,0,0,0,0,0,0,0,0,0,0,0,0,0,0,0,0,0,0,0,0,0,0,0,0,0,0,0,0,0,0,0,0,0,-5.6623,-5.6625,0,-5.6822,-5.6824,-5.6827,-5.681,-5.6807,-5.6804,-5.6801,-5.7007,-5.7015,-5.7023,0,0,0,0,0,0,0,0,0,0,0,0,0,-5.623,-5.6237,-5.6622,-5.6625,-5.6627,-5.6822,-5.6824,-5.6827,-5.681,-5.6807,-5.6803,-5.68,-5.7004,-5.7014,-5.7024,0,0,0,0,0,0,0,0,0,0,0,0,0,-5.6412,-5.6239,-5.6622,-5.6642,-5.6646,-5.6821,-5.6825,-5.6828,-5.6811,-5.6807,-5.6802,-5.6798,-5.7001,-5.7013,-5.7025,-5.7193,0,0,-5.7064,-5.7069,0,0,0,0,0,0,0,0,-5.6402,-5.6426,-5.6637,-5.6641,-5.6646,-5.6786,-5.6761,-5.695,-5.6812,-5.6749,-5.6801,-5.6796,-5.6937,-5.6955,-5.7002,-5.7203,-5.7212,-5.7065,-5.7072,-5.7078,-5.7081,0,0,0,0,0,0,0,-5.6389,-5.6418,-5.6701,-5.664,-5.6646,-5.6643,-5.6663,-5.6797,-5.6866,-5.6754,-5.6753,-5.6777,-5.6939,-5.699,-5.7007,-5.7215,-5.7064,-5.7075,-5.7083,-5.7088,-5.7566,-5.7571,0,0,0,0,0,0,-5.6371,-5.6407,-5.6695,-5.6707,-5.651,-5.6653,-5.6677,-5.6746,-5.6865,-5.6878,-5.6781,-5.6775,-5.6971,-5.6992,-5.7014,-5.722,-5.7077,-5.7089,-5.7096,-5.7561,-5.7567,-5.7573,0,0,0,0,0,0,-5.6363,-5.6397,-5.6687,-5.6557,-5.6594,-5.6665,-5.6743,-5.6752,-5.6803,-5.6885,-5.6897,-5.682,-5.6968,-5.6997,-5.7149,-5.7227,-5.7095,-5.7106,-5.7555,-5.7563,-5.757,-5.7633,0,0,0,0,0,0,-5.6352,-5.6394,-5.6458,-5.6559,-5.6601,-5.6818,-5.6748,-5.6759,-5.6825,-5.682,-5.6925,-5.6938,-5.6967,-5.7131,-5.7162,-5.7242,-5.7116,-5.7548,-5.7558,-5.7568,-5.7624,-5.7642,-5.7657,0,0,0,0,0,-5.6338,-5.6467,-5.6461,-5.6496,-5.6682,-5.6823,-5.6847,-5.6877,-5.6831,-5.6897,-5.6949,-5.6935,-5.7214,-5.7147,-5.7181,-5.7266,-5.7543,-5.7555,-5.7567,-5.7617,-5.7639,-5.7657,0,0,0,0,0,0,-5.6374,-5.6481,-5.6475,-5.6641,-5.6723,-5.6819,-5.6903,-5.6898,-5.6995,-5.6987,-5.702,-5.7044,-5.7198,-5.7248,-5.7171,-5.7437,-5.7373,-5.7392,-5.7399,-5.742,-5.7436,-5.7422,-5.7126,0,0,0,0,0,-5.6401,-5.6506,-5.6594,-5.6732,-5.6773,-5.6831,-5.6894,-5.691,-5.6996,-5.7031,-5.7094,-5.7179,-5.7286,-5.7355,-5.7458,-5.7631,-5.7655,-5.7707,-5.7723,-5.7736,-5.7753,-5.7851,-5.7875,-5.7612,-5.7611,-5.7611,0,0,-5.6459,-5.653,-5.6594,-5.6741,-5.6806,-5.6915,-5.686,-5.6977,-5.7059,-5.7048,-5.7197,-5.7247,-5.7344,-5.7508,-5.7584,-5.7554,-5.7831,-5.7751,-5.7761,-5.7771,-5.7865,-5.789,-5.7912,-5.762,-5.7618,-5.7617,0,0,-5.662,-5.6683,-5.6806,-5.6873,-5.6973,-5.7011,-5.704,-5.7138,-5.7171,-5.732,-5.7316,-5.7413,-5.7596,-5.7666,-5.7726,-5.7915,-5.7907,-5.7947,-5.8034,-5.8128,-5.8149,-5.8168,-5.8237,-5.8261,-5.7963,-5.7964,-5.7964,0,-5.6679,-5.6842,-5.687,-5.6989,-5.7055,-5.705,-5.7176,-5.724,-5.7368,-5.7414,-5.7379,-5.7609,-5.7674,-5.7856,-5.7902,-5.795,-5.7986,-5.7936,-5.8144,-5.8163,-5.8181,-5.8247,-5.8273,-5.7968,-5.7968,-5.7967,-5.7967,0,-5.6911,-5.7024,-5.7111,-5.7236,-5.7311,-5.7433,-5.7481,-5.7554,-5.7564,-5.7606,-5.776,-5.7838,-5.7957,-5.8001,-5.8012,-5.8185,-5.8164,-5.8136,-5.8073,-5.821,-5.8273,-5.8299,-5.7975,-5.7973,-5.7972,-5.797,0,0,-5.7099,-5.7239,-5.7271,-5.7328,-5.7438,-5.7527,-5.7649,-5.7765,-5.7829,-5.7917,-5.8022,-5.8178,-5.8153,-5.8221,-5.8239,-5.8322,-5.847,-5.8284,-5.8287,-5.8318,-5.8668,-5.869,-5.8719,-5.8464,-5.8469,-5.8473,-5.8661,0,-5.7273,-5.7488,-5.7519,-5.771,-5.7816,-5.7814,-5.7921,-5.8001,-5.8044,-5.8141,-5.8189,-5.8299,-5.8257,-5.8299,-5.838,-5.8434,-5.8541,-5.8421,-5.8564,-5.8568,-5.8541,-5.8751,-5.8774,-5.8947,-5.8685,-5.869,-5.8693,0,-5.7503,-5.7599,-5.7801,-5.7898,-5.7944,-5.8039,-5.815,-5.8242,-5.8334,-5.8359,-5.8436,-5.8445,-5.8573,-5.8503,-5.8682,-5.86,-5.866,-5.8695,-5.8703,-5.8718,-5.864,-5.8774,-5.9003,-5.9029,-5.8732,-5.8728,-5.8726,0,-5.7623,-5.7802,-5.7947,-5.7995,-5.8112,-5.818,-5.8232,-5.8318,-5.8387,-5.8484,-5.853,-5.864,-5.8701,-5.8787,-5.8826,-5.8771,-5.9003,-5.8936,-5.9029,-5.9028,-5.9079,-5.9075,-5.9322,-5.9115,-5.9115,-5.9114,-5.9114,0,-5.7814,-5.7938,-5.8002,-5.8091,-5.8231,-5.8265,-5.8403,-5.8453,-5.853,-5.863,-5.8635,-5.8729,-5.8774,-5.8876,-5.8907,-5.9051,-5.9078,-5.9104,-5.9111,-5.9104,-5.9101,-5.9145,-5.9135,-5.9121,-5.912,-5.9118,-5.9117,0,-5.7971,-5.8019,-5.8177,-5.8275,-5.8303,-5.8402,-5.8486,-5.8573,-5.8616,-5.8742,-5.8774,-5.8841,-5.8961,-5.9008,-5.9154,-5.9176,-5.9342,-5.9339,-5.9312,-5.9314,-5.9405,-5.9397,-5.969,-5.9731,-5.9495,-5.9497,-5.9499,0,-5.809,-5.8186,-5.8295,-5.8362,-5.8416,-5.8524,-5.8594,-5.8632,-5.8706,-5.8818,-5.8892,-5.9012,-5.9109,-5.9301,-5.9363,-5.9476,-5.9477,-5.9572,-5.9494,-5.9485,-5.948,-5.9475,-5.9486,-5.9586,-5.9589,-5.9591,-5.9592,0,-5.8298,-5.8317,-5.8418,-5.8529,-5.8613,-5.8701,-5.8788,-5.8843,-5.8894,-5.8976,-5.9099,-5.9175,-5.9324,-5.9444,-5.956,-5.9615,-5.9614,-5.9616,-5.9644,-5.9639,-5.962,-5.9633,-5.9353,-5.9609,-5.9608,-5.9606,-5.9606,-5.9605,-5.8441,-5.8527,-5.8617,-5.873,-5.8799,-5.888,-5.8968,-5.9022,-5.9124,-5.9249,-5.9265,-5.9397,-5.9488,-5.9644,-5.9704,-5.9808,-5.9784,-5.9823,-5.9834,-5.9844,-5.9851,-5.9602,-5.9829,-5.9829,-5.9828,-5.9828,-5.9828,0,-5.865,-5.8709,-5.8812,-5.8933,-5.9023,-5.9013,-5.9108,-5.9184,-5.93,-5.9385,-5.9481,-5.9623,-5.9739,-5.9811,-5.9928,-5.9998,-6.0001,-6.0028,-6.0024,-6.0037,-5.9865,-5.983,-6.0024,-6.0024,-6.0024,-6.0024,-6.0024,-6.0024,-5.877,-5.8915,-5.8945,-5.9125,-5.9183,-5.9312,-5.9368,-5.9443,-5.9511,-5.9669,-5.9766,-5.9812,-5.9892,-6.0016,-6.0123,-6.0141,-6.0185,-6.0214,-6.0231,-6.0069,-6.0049,-6.0029,-5.9997,-6.0223,-6.0223,-6.0395,-6.0396,-6.0397]}]]